Location: Coopersdale
(40.3556°N, 78.9372°W)
Time: 03:10:32
(UTC+00:00)

Tiros 1 despin weight - Pass Details

Date: 28 January 2021
Orbit: 593 x 642 km, 48.2° (Epoch: 02 March)

Event Time Altitude Azimuth Distance (km) Brightness Sun altitude
Rises 00:15:19 0° 297° (WNW) 2,854 ? -20.4°
Reaches altitude 10° 00:17:39 10° 293° (WNW) 1,942 ? -20.8°
Maximum altitude 00:21:59 54° 217° (SW) 729 ? -21.7°
Enters shadow 00:23:38 33° 158° (SSE) 1,000 ? -22.0°
Drops below altitude 10° 00:26:16 10° 140° (SE) 1,916 - -22.5°
Sets 00:28:34 0° 135° (SE) 2,813 - -22.9°
